User: anonymous   Login
Location: Sawmill Trailhead
(33.5800°N, 116.4497°W)
Time: 14:17:35
(UTC-08:00)
Language:

Uosat F - Orbit

View from above orbital plane
View from above orbital plane
View from above satellite
View from above satellite

Ground track
Ground track

The orbit data is extracted from the following two-line orbital elements,

1 21575U 91050B   16344.97856699  .00000048  00000-0  29403-4 0  9996
2 21575  98.7628 350.8174 0008019 137.2721 222.9091 14.40774407334037
Epoch (UTC): 09 December 2016 23:29:08
Eccentricity: 0.0008019
inclination: 98.7628°
perigee height: 750 km
apogee height: 761 km
right ascension of ascending node: 350.8174°
argument of perigee: 137.2721°
revolutions per day: 14.40774407
mean anomaly at epoch: 222.9091°
orbit number at epoch: 33403

The dashed part of the orbit path shows where the satellite is in the earth's shadow,  

DLR